weather.gov     
National Weather Service

Regional Weather Roundup
NWS Homepage
This page is being discontinued on March 12, 2014.
The same data is available at this site. Please update your bookmarks.
Thank you, and we apologize for the inconvenience.
Please send an email to SR-SRH.Webmaster@noaa.gov with any concerns.


Current Version
Previous Version:    01  02  03  04  05  06  07  08  09  10  11  12  13  14  15  16  17  18  19  20  21  22  23  24  25  26  27  28  29  30  
   31  32  33  34  35  36  37  38  39  40  41  42  43  44  45  46  47  48  49  50  51  52  53  54  55  56  57  58  59  60  
[Printable]
997
ASUS44 KFWD 011415
RWRTX
NORTH TEXAS HOURLY WEATHER ROUNDUP
NATIONAL WEATHER SERVICE FORT WORTH TX
900 AM CDT FRI AUG 01 2014

NOTE: "FAIR" INDICATES FEW OR NO CLOUDS BELOW 12,000 FEET WITH NO
SIGNIFICANT WEATHER AND/OR OBSTRUCTIONS TO VISIBILITY.

TXZ118-119-011500-
DALLAS/FORT WORTH METROPLEX

CITY           SKY/WX    TMP DP  RH WIND       PRES   REMARKS
DFW AIRPORT    CLOUDY    71  66  84 NE13      30.05R
DALLAS LOVE    CLOUDY    70  68  93 NE7       30.05R
FTW MEACHAM    CLOUDY    72  66  83 N8        30.06R
DAL-EXECUTIVE  LGT RAIN  72  66  83 N6        30.05R FOG
FTW-ALLIANCE   CLOUDY    71  65  81 N8        30.05R
FTW-NAS-JRB    CLOUDY    74  64  71 N12       30.10R
FTW-SPINKS     DRIZZLE   70  66  88 N5        30.07R
ARLINGTON      LGT RAIN  70  67  90 N10G20    30.05S FOG
GRAND PRAIRIE  CLOUDY    70  70 100 N7        30.07R FOG
ADDISON        CLOUDY    70  66  88 NE7       30.06R
MESQUITE       CLOUDY    70  66  88 N3        30.05R
LANCASTER      DRIZZLE   69  66  92 N3        30.05S
$$

TXZ091>094-102>105-117-120-121-131>134-011500-
NORTH CENTRAL TEXAS

CITY           SKY/WX    TMP DP  RH WIND       PRES   REMARKS
SHRMAN/DENISON CLOUDY    69  66  92 NE6       30.08S
GAINESVILLE    CLOUDY    70  65  85 N7        30.10R
BOWIE          PTSUNNY   69  65  86 N7        30.09R
BRIDGEPORT     MOSUNNY   72  62  71 NE12      30.10R
DECATUR        CLOUDY    69  65  88 N9        30.09R
DENTON         CLOUDY    71  66  84 N12       30.06R
MCKINNEY       LGT RAIN  69  67  93 NE8       30.05R FOG
GREENVILLE     CLOUDY    68  64  88 NE3       30.05
ROCKWALL       CLOUDY    68  68  98 NE6       30.04R
TERRELL        LGT RAIN  71  70  96 N8        30.04R FOG
WAXAHACHIE     CLOUDY    69  67  94 N6        30.06R FOG
CLEBURNE       CLOUDY    70  70 100 N8        30.08R
GRANBURY       CLOUDY    72  65  79 N7        30.09R
$$

TXZ083>090-098>101-113>116-127>130-139>142-154-155-011500-
WESTERN NORTH TEXAS

CITY           SKY/WX    TMP DP  RH WIND       PRES   REMARKS
WICHITA FALLS  PTSUNNY   70  66  87 NE3       30.09R
WF-KICKAPOO    MOSUNNY   71  66  85 CALM      30.11R
VERNON         SUNNY     69  67  92 NE3       30.12R
ABILENE        PTSUNNY   70  64  81 CALM      30.12R
ABILENE-DYESS  MOSUNNY   70  64  83 VRB3      30.12R
BRECKENRIDGE   SUNNY     73  63  71 E7        30.10R HAZE
GRAHAM         SUNNY     72  64  77 N8        30.09R
MINERAL WELLS  CLOUDY    70  64  81 NE8       30.07R
STEPHENVILLE   CLOUDY    69  64  84 N9        30.11R
COMANCHE       SUNNY     71  63  77 N7        30.10R
BROWNWOOD      MOSUNNY   73  64  73 NE10      30.10R
COLEMAN        PTSUNNY   73  63  72 NE9       30.11R
BRADY          MOSUNNY   72  63  73 NE7       30.10R
$$

TXZ143>147-156>162-174-175-011500-
CENTRAL TEXAS

CITY           SKY/WX    TMP DP  RH WIND       PRES   REMARKS
WACO           CLOUDY    73  66  78 N7        30.04R
WACO-TSTC      CLOUDY    73  66  78 NW7       30.04R
WACO-MCGREGOR  CLOUDY    72  63  73 N6        30.06R
HILLSBORO      CLOUDY    72  65  81 NW7       30.05R
CORSICANA      CLOUDY    71  68  90 N8        30.04R FOG
MEXIA          CLOUDY    71  67  90 N7        30.02R
HEARNE         CLOUDY    74  67  80 NW10      30.02R
CAMERON        PTSUNNY   74  67  78 N9        30.03R
TEMPLE         CLOUDY    73  63  68 NW10      30.03R
KILLEEN        PTSUNNY   70  64  83 NW6       30.06R
KILLEEN-SKYLRK MOSUNNY   72  61  68 NW8       30.05R
FORT HOOD      CLOUDY    73  65  75 NW7       30.06R
GATESVILLE     CLOUDY    72  64  78 NW7       30.08R
HAMILTON       CLOUDY    70  65  85 N12       30.09R
LAMPASAS       PTSUNNY   71  67  89 N5        30.07R
$$

TXZ095>097-106>112-122>126-135>138-148>153-164>167-011500-
EAST TEXAS

CITY           SKY/WX    TMP DP  RH WIND       PRES   REMARKS
PARIS          CLOUDY    66  63  88 NE7       30.07R
SULPHUR SPRNGS CLOUDY    68  67  98 NE6       30.06R FOG
CLARKSVILLE    CLOUDY    68  67  98 N3        30.06R
MOUNT PLEASANT CLOUDY    68  67  97 NE5       30.05R
GILMER         CLOUDY    66  66 100 N6        30.04R
MINEOLA        CLOUDY    70  70 100 N3        30.04R
TYLER          CLOUDY    69  66  90 NE7       30.01R
LONGVIEW       CLOUDY    68  66  94 N3        30.00R FOG
MARSHALL       CLOUDY    70  67  92 CALM      30.02R
ATHENS         CLOUDY    70  66  88 NE6       30.01R
JACKSONVILLE   FOG       68  67  98 N3        30.03R VSB 3/4
HENDERSON      CLOUDY    67  67  99 N5        30.01R FOG
NACOGDOCHES    CLOUDY    72  70  94 NW7       29.99R
LUFKIN         CLOUDY    76  71  85 NW6       29.98R
$$

SUPPLEMENTAL OBSERVATIONS (CENTRAL)

CITY           SKY/WX    TMP DP  RH WIND       PRES   REMARKS
LAKE TEXOMA      N/A     66  66 100 NE5         N/A
CADDO GRASSLND   N/A     66  64  94 NE3         N/A
PAT MAYSE LAKE   N/A     66  64  94 N5          N/A
ATHENS           N/A     70  64  83 N2          N/A
PALESTINE        N/A     70  66  88 N6          N/A
LAKE LIMESTONE   N/A     73  72  94 N8          N/A
MCGREGOR         N/A     73  64  73 N5          N/A
TEMPLE           N/A     73  64  73 N2          N/A
$$

SUPPLEMENTAL OBSERVATIONS (WEST)

CITY           SKY/WX    TMP DP  RH WIND       PRES   REMARKS
MILLERS CREEK    N/A     73  68  83 VRB2        N/A
POSSUM KINGDOM   N/A     72  63  73 NE8         N/A
LBJ GRASSLAND    N/A     72  64  78 N7          N/A
GRANBURY         N/A     72  64  78 N8          N/A
HAMBY            N/A     72  66  83 NE2         N/A
$$

SUPPLEMENTAL OBSERVATIONS (EAST)

CITY           SKY/WX    TMP DP  RH WIND       PRES   REMARKS
TEXARKANA        N/A     68  64  88 NE3         N/A
LINDEN           N/A     66  63  88 NE1         N/A
CADDO LAKE       N/A     68  66  94 NE3         N/A
LUFKIN           N/A     75  73  94 MISG        N/A
N SABINE NF      N/A     72  70  94 MISG        N/A
$$

SUPPLEMENTAL OBSERVATIONS ARE A COLLECTION OF AUTOMATED INSTRUMENTS
THAT ARE MAINTAINED BY A VARIETY OF FEDERAL AND STATE AGENCIES.
CERTAIN ELEMENTS...SUCH AS HUMIDITY VALUES AND SUSTAINED WIND
SPEEDS...MAY BE APPROXIMATED.





U.S. Dept. of Commerce
NOAA National Weather Service
1325 East West Highway
Silver Spring, MD 20910
E-mail: w-nws.webmaster@noaa.gov
Page last modified: May 16, 2007
NATIONAL WEATHER SERVICE: for Safety, for Work, for Fun - FOR LIFE